NOAA 16 DEB, 41212

Orbit data source: Space-Track

NOAA 16 DEB, 41212 is space debris in SSO originally from a launch on Thu, 21 Sep 2000 UTC launched from the Air Force Western Test Range (AFWTR). Debris objects in space refer to the collection of defunct objects orbiting the Earth. Examples of debris include non-operational satellites, rocket bodies, and fragments generated from explosions, collisions, or faulty payload assembly.

Loading next visibility...
Identifier
41212, 2000-055DR
Orbit
SSO
Country
Flag of USUS
Related business
Manufacturer
Unknown
Mission
Spacecraft
Bus & Motor
Unknown
Mass
Unknown
Launch date (UTC)
2000-09-21 (25 years ago)
Launch vehicle
Unknown
Launch site
Air Force Western Test Range (AFWTR)
Object type
Payload
Rocket body
Debris
Shape & HBR
Unknown
Radar Cross Section
Small (<0.1 m²)

Expand to show TLE details & history
Last TLE update: 1 day ago

TLE from 1 day ago
0 NOAA 16 DEB
1 41212U 00055DR  25260.22409929  .00004784  00000-0  17029-2 0  9996
2 41212  98.9356  34.2080 0014385  33.8434 326.3665 14.34713769506013
Epoch: 2025-09-17T05:22Z
TLE epoch observation values (Epoch: 2025-09-17T05:22:42.178Z)
Latitude
-0.00004°
Longitude
-42.87085°
Altitude
770.379 km
Speed
7.473 km/s
True Right ascension
02h 16m 49s
True Declination
0° 00' 00"
Sunlit
Object was in full shadow at epoch
Visualization orbit readout
Latitude
Unknown
Longitude
Unknown
Altitude
Unknown
Speed
Unknown
Apparent Right ascension
Unknown
Apparent Declination
Unknown
Sunlit
N/A
Visualization observer readout
Local Sidereal Time
08:52:02
Azimuth
Unknown
Elevation
Unknown
Doppler factor
Unknown
Orbital elements
Apogee altitude
783.455 km
Perigee altitude
762.881 km
Semi-major axis
7,151.305 km
Eccentricity
0.00144
Inclination
98.9356°
RAAN
34.208°
Arg. of periapsis
33.8434°
True anomaly
326.27506°
Mean anomaly
326.3665°
Eccentric anomaly
326.32079°
Mean motion
3.58893 °/min
Orbital period
100.31 mins
BSTAR
0.0017029
Loading maneuver chart data...
Computing Atmospheric mass density...
Loading historical data...
Loading historical data...
Loading historical data...
Loading historical data...
Loading historical data...
Loading historical data...
Loading historical data...

Documentation

Showing up to 5 results
|